MTI (26102 NORAD) Tracking and Keplerian Element Data

This shows tracking and keplerian element data for the satellite.

Feedback or suggestion? Click here.




ElementValue
Catalog26102
NameMTI
Epoch Orbit23252
Epoch Day129.54363836
Epoch Year2022
RAAN62.8966
Inclination97.4384
Eccentricity0.0010717
Argument of Perigee157.8964
Mean Anonmoly202.3008
Mean Motion16.15061237
Decay Rate0.01277736
L11 26102U 00014A 22129.54363836 .01277736 12016-2 99083-3 0 9997
L22 26102 97.4384 62.8966 0010717 157.8964 202.3008 16.15061237232522



Live tracking and technical data element details for MTI (NORAD 26102). MTI can be tracked NOW for your location showing map with azimuth and elevation plus other details from your city location.







IsCatalogInMostPopularTable: catalog: 26102, numindb: 322
Update: records affected: 1



GetName: 26102 MTI

Hit Count: updated at: Fri, 19 Apr 2024 12:04:26 GMT